| time (UTC) | temp C | wind direction | speed KPH | gust KPH | rain 1hr cm | rain 24hr cm | rain mn cm | humidity % | barometer mb |
| 20260504151010 | 19 | 198 | 0.0 | 12.9 | 0.00 | 0.00 | 0.00 | 35 | 1014.0 |
| 20260504150510 | 19 | 333 | 1.6 | 12.9 | 0.00 | 0.00 | 0.00 | 36 | 1013.9 |
| 20260504141019 | 17 | 114 | 1.6 | 9.7 | 0.00 | 0.00 | 0.00 | 42 | 1014.1 |
| 20260504140510 | 17 | 163 | 1.6 | 8.0 | 0.00 | 0.00 | 0.00 | 43 | 1014.1 |
| 20260504130511 | 14 | 143 | 1.6 | 4.8 | 0.00 | 0.00 | 0.00 | 50 | 1014.8 |
| 20260504110510 | 8 | 0 | 0.0 | 1.6 | 0.00 | 0.00 | 0.00 | 68 | 1015.0 |
| 20260504100508 | 10 | 0 | 0.0 | 0.0 | 0.00 | 0.00 | 0.00 | 65 | 1014.9 |
| 20260504081533 | 8 | 0 | 0.0 | 3.2 | 0.00 | 0.00 | 0.00 | 74 | 1015.0 |
| 20260504081014 | 8 | 0 | 0.0 | 1.6 | 0.00 | 0.00 | 0.00 | 74 | 1015.1 |
| 20260504080517 | 8 | 0 | 0.0 | 0.0 | 0.00 | 0.00 | 0.00 | 74 | 1015.2 |
| 20260504050508 | 7 | 0 | 0.0 | 0.0 | 0.00 | 0.00 | 0.00 | 66 | 1015.6 |
| 20260504045511 | 7 | 0 | 0.0 | 0.0 | 0.00 | 0.00 | 0.00 | 65 | 1015.6 |
| 20260504045016 | 7 | 0 | 0.0 | 0.0 | 0.00 | 0.00 | 0.00 | 66 | 1015.5 |
| 20260504044528 | 7 | 0 | 0.0 | 0.0 | 0.00 | 0.00 | 0.00 | 70 | 1015.6 |
| 20260504044011 | 7 | 0 | 0.0 | 0.0 | 0.00 | 0.00 | 0.00 | 68 | 1015.6 |
| 20260504043512 | 7 | 0 | 0.0 | 0.0 | 0.00 | 0.00 | 0.00 | 66 | 1015.5 |
| 20260504043030 | 7 | 0 | 0.0 | 1.6 | 0.00 | 0.00 | 0.00 | 66 | 1015.5 |
| 20260504042512 | 7 | 0 | 0.0 | 1.6 | 0.00 | 0.00 | 0.00 | 67 | 1015.5 |
| 20260504042011 | 7 | 0 | 0.0 | 1.6 | 0.00 | 0.00 | 0.00 | 66 | 1015.5 |
| 20260504041529 | 7 | 0 | 0.0 | 0.0 | 0.00 | 0.00 | 0.00 | 65 | 1015.4 |
| 20260504041008 | 7 | 0 | 0.0 | 0.0 | 0.00 | 0.00 | 0.00 | 65 | 1015.4 |
| 20260504040511 | 7 | 0 | 0.0 | 0.0 | 0.00 | 0.00 | 0.00 | 67 | 1015.4 |
| 20260504040029 | 7 | 0 | 0.0 | 0.0 | 0.00 | 0.00 | 0.00 | 68 | 1015.4 |
| 20260504035508 | 7 | 0 | 0.0 | 0.0 | 0.00 | 0.00 | 0.00 | 66 | 1015.5 |
| 20260504035010 | 7 | 0 | 0.0 | 0.0 | 0.00 | 0.00 | 0.00 | 64 | 1015.6 |
| 20260504034528 | 7 | 0 | 0.0 | 0.0 | 0.00 | 0.00 | 0.00 | 67 | 1015.5 |
| 20260504034011 | 7 | 0 | 0.0 | 0.0 | 0.00 | 0.00 | 0.00 | 66 | 1015.5 |
| 20260504033508 | 7 | 0 | 0.0 | 0.0 | 0.00 | 0.00 | 0.00 | 66 | 1015.4 |
| 20260504033028 | 7 | 0 | 0.0 | 0.0 | 0.00 | 0.00 | 0.00 | 67 | 1015.4 |
| 20260504032512 | 7 | 0 | 0.0 | 0.0 | 0.00 | 0.00 | 0.00 | 68 | 1015.3 |
| 20260504032013 | 7 | 0 | 0.0 | 0.0 | 0.00 | 0.00 | 0.00 | 68 | 1015.3 |
| 20260504031530 | 7 | 0 | 0.0 | 0.0 | 0.00 | 0.00 | 0.00 | 68 | 1015.3 |
| 20260504031011 | 7 | 0 | 0.0 | 0.0 | 0.00 | 0.00 | 0.00 | 66 | 1015.3 |
| 20260504030512 | 7 | 0 | 0.0 | 0.0 | 0.00 | 0.00 | 0.00 | 66 | 1015.3 |
| 20260504030034 | 7 | 0 | 0.0 | 0.0 | 0.00 | 0.00 | 0.00 | 67 | 1015.2 |
| 20260504025511 | 7 | 0 | 0.0 | 0.0 | 0.00 | 0.00 | 0.00 | 67 | 1015.3 |
| 20260504025014 | 7 | 0 | 0.0 | 0.0 | 0.00 | 0.00 | 0.00 | 67 | 1015.2 |
| 20260504024529 | 7 | 0 | 0.0 | 0.0 | 0.00 | 0.00 | 0.00 | 65 | 1015.2 |
| 20260504024010 | 8 | 0 | 0.0 | 0.0 | 0.00 | 0.00 | 0.00 | 65 | 1015.1 |
| 20260504023509 | 8 | 0 | 0.0 | 0.0 | 0.00 | 0.00 | 0.00 | 64 | 1015.2 |
| 20260504023028 | 8 | 0 | 0.0 | 0.0 | 0.00 | 0.00 | 0.00 | 64 | 1015.2 |
| 20260504022510 | 8 | 0 | 0.0 | 0.0 | 0.00 | 0.00 | 0.00 | 63 | 1015.1 |
| 20260504022009 | 8 | 0 | 0.0 | 0.0 | 0.00 | 0.00 | 0.00 | 62 | 1015.1 |
| 20260504021535 | 8 | 0 | 0.0 | 0.0 | 0.00 | 0.00 | 0.00 | 60 | 1015.1 |
| 20260504021011 | 8 | 0 | 0.0 | 0.0 | 0.00 | 0.00 | 0.00 | 59 | 1014.9 |
| 20260504020511 | 8 | 0 | 0.0 | 0.0 | 0.00 | 0.00 | 0.00 | 58 | 1015.0 |
| 20260504020035 | 8 | 0 | 0.0 | 0.0 | 0.00 | 0.00 | 0.00 | 59 | 1015.0 |
| 20260504015511 | 8 | 0 | 0.0 | 0.0 | 0.00 | 0.00 | 0.00 | 59 | 1014.9 |
| 20260504015011 | 9 | 0 | 0.0 | 0.0 | 0.00 | 0.00 | 0.00 | 58 | 1014.9 |
| 20260504014530 | 9 | 0 | 0.0 | 0.0 | 0.00 | 0.00 | 0.00 | 55 | 1014.8 |
| 20260504014008 | 9 | 0 | 0.0 | 0.0 | 0.00 | 0.00 | 0.00 | 53 | 1014.7 |
| 20260504013511 | 10 | 0 | 0.0 | 0.0 | 0.00 | 0.00 | 0.00 | 55 | 1014.8 |
| 20260504013035 | 10 | 0 | 0.0 | 0.0 | 0.00 | 0.00 | 0.00 | 55 | 1014.8 |
| 20260504012508 | 10 | 0 | 0.0 | 0.0 | 0.00 | 0.00 | 0.00 | 53 | 1014.8 |
| 20260504012008 | 10 | 0 | 0.0 | 0.0 | 0.00 | 0.00 | 0.00 | 51 | 1014.6 |
| 20260504011528 | 10 | 0 | 0.0 | 0.0 | 0.00 | 0.00 | 0.00 | 51 | 1014.6 |
| 20260504011008 | 10 | 0 | 0.0 | 0.0 | 0.00 | 0.00 | 0.00 | 50 | 1014.7 |
| 20260504010508 | 11 | 0 | 0.0 | 0.0 | 0.00 | 0.00 | 0.00 | 49 | 1014.8 |
| 20260504010028 | 11 | 0 | 0.0 | 0.0 | 0.00 | 0.00 | 0.00 | 46 | 1014.8 |
| 20260504005507 | 11 | 0 | 0.0 | 0.0 | 0.00 | 0.00 | 0.00 | 45 | 1014.7 |
| 20260504005011 | 11 | 0 | 0.0 | 0.0 | 0.00 | 0.00 | 0.00 | 43 | 1014.7 |
| 20260504004539 | 11 | 0 | 0.0 | 0.0 | 0.00 | 0.00 | 0.00 | 43 | 1014.6 |
| 20260504004010 | 12 | 0 | 0.0 | 0.0 | 0.00 | 0.00 | 0.00 | 42 | 1014.7 |
| 20260504003510 | 12 | 0 | 0.0 | 0.0 | 0.00 | 0.00 | 0.00 | 42 | 1014.6 |
| 20260504003027 | 12 | 0 | 0.0 | 0.0 | 0.00 | 0.00 | 0.00 | 42 | 1014.6 |
| 20260504002508 | 12 | 0 | 0.0 | 0.0 | 0.00 | 0.00 | 0.00 | 41 | 1014.5 |
| 20260504002008 | 12 | 0 | 0.0 | 0.0 | 0.00 | 0.00 | 0.00 | 41 | 1014.4 |
| 20260504001535 | 12 | 0 | 0.0 | 0.0 | 0.00 | 0.00 | 0.00 | 40 | 1014.3 |
| 20260504001008 | 13 | 0 | 0.0 | 0.0 | 0.00 | 0.00 | 0.00 | 40 | 1014.3 |
| 20260504000511 | 13 | 0 | 0.0 | 0.0 | 0.00 | 0.00 | 0.00 | 37 | 1014.3 |
| 20260504000028 | 13 | 0 | 0.0 | 0.0 | 0.00 | 0.00 | 0.00 | 36 | 1014.3 |
| 20260503235509 | 13 | 0 | 0.0 | 0.0 | 0.00 | 0.00 | 0.00 | 36 | 1014.2 |
| 20260503235010 | 14 | 0 | 0.0 | 0.0 | 0.00 | 0.00 | 0.00 | 36 | 1014.2 |
| 20260503234534 | 14 | 0 | 0.0 | 1.6 | 0.00 | 0.00 | 0.00 | 35 | 1014.2 |
| 20260503234011 | 14 | 0 | 0.0 | 1.6 | 0.00 | 0.00 | 0.00 | 36 | 1014.1 |
| 20260503233510 | 14 | 0 | 0.0 | 1.6 | 0.00 | 0.00 | 0.00 | 35 | 1014.0 |
| 20260503233027 | 15 | 0 | 0.0 | 1.6 | 0.00 | 0.00 | 0.00 | 34 | 1013.9 |
| 20260503232508 | 15 | 292 | 0.0 | 3.2 | 0.00 | 0.00 | 0.00 | 34 | 1013.8 |
| 20260503232011 | 15 | 0 | 0.0 | 3.2 | 0.00 | 0.00 | 0.00 | 34 | 1013.9 |
| 20260503231528 | 15 | 0 | 0.0 | 8.0 | 0.00 | 0.00 | 0.00 | 33 | 1013.8 |
| 20260503231009 | 15 | 0 | 0.0 | 8.0 | 0.00 | 0.00 | 0.00 | 33 | 1013.8 |
| 20260503230508 | 15 | 292 | 0.0 | 8.0 | 0.00 | 0.00 | 0.00 | 32 | 1013.8 |
| 20260503230030 | 15 | 0 | 0.0 | 8.0 | 0.00 | 0.00 | 0.00 | 31 | 1013.7 |
| 20260503225509 | 15 | 282 | 0.0 | 8.0 | 0.00 | 0.00 | 0.00 | 31 | 1013.8 |
| 20260503225007 | 15 | 215 | 1.6 | 8.0 | 0.00 | 0.00 | 0.00 | 30 | 1013.9 |
| 20260503224529 | 15 | 0 | 0.0 | 4.8 | 0.00 | 0.00 | 0.00 | 31 | 1013.9 |
| 20260503224009 | 16 | 294 | 0.0 | 4.8 | 0.00 | 0.00 | 0.00 | 32 | 1013.9 |
| 20260503223512 | 16 | 0 | 0.0 | 6.4 | 0.00 | 0.00 | 0.00 | 31 | 1013.9 |
| 20260503223028 | 16 | 265 | 1.6 | 8.0 | 0.00 | 0.00 | 0.00 | 32 | 1014.0 |
| 20260503222510 | 16 | 0 | 1.6 | 8.0 | 0.00 | 0.00 | 0.00 | 29 | 1013.9 |
| 20260503222010 | 16 | 283 | 0.0 | 4.8 | 0.00 | 0.00 | 0.00 | 30 | 1014.0 |
| 20260503221534 | 16 | 229 | 0.0 | 3.2 | 0.00 | 0.00 | 0.00 | 31 | 1014.0 |
| 20260503221010 | 16 | 0 | 0.0 | 11.3 | 0.00 | 0.00 | 0.00 | 30 | 1014.0 |
| 20260503220511 | 17 | 0 | 0.0 | 11.3 | 0.00 | 0.00 | 0.00 | 30 | 1014.0 |
| 20260503220034 | 17 | 221 | 1.6 | 12.9 | 0.00 | 0.00 | 0.00 | 30 | 1014.1 |
| 20260503215513 | 17 | 281 | 3.2 | 12.9 | 0.00 | 0.00 | 0.00 | 29 | 1014.0 |
| 20260503215011 | 17 | 269 | 1.6 | 11.3 | 0.00 | 0.00 | 0.00 | 30 | 1014.0 |
| 20260503214537 | 16 | 276 | 1.6 | 16.1 | 0.00 | 0.00 | 0.00 | 30 | 1014.2 |
| 20260503214011 | 17 | 308 | 4.8 | 16.1 | 0.00 | 0.00 | 0.00 | 30 | 1014.1 |
| 20260503213511 | 17 | 263 | 3.2 | 11.3 | 0.00 | 0.00 | 0.00 | 29 | 1014.1 |
| 20260503213034 | 17 | 235 | 1.6 | 9.7 | 0.00 | 0.00 | 0.00 | 28 | 1014.1 |
| 20260503212511 | 17 | 0 | 1.6 | 6.4 | 0.00 | 0.00 | 0.00 | 31 | 1014.2 |
| 20260503212015 | 17 | 28 | 0.0 | 11.3 | 0.00 | 0.00 | 0.00 | 30 | 1014.2 |
| 20260503211531 | 17 | 284 | 0.0 | 11.3 | 0.00 | 0.00 | 0.00 | 31 | 1014.1 |
| 20260503211010 | 17 | 213 | 1.6 | 8.0 | 0.00 | 0.00 | 0.00 | 30 | 1014.0 |
| 20260503210510 | 17 | 202 | 1.6 | 11.3 | 0.00 | 0.00 | 0.00 | 30 | 1014.1 |
| 20260503210028 | 17 | 221 | 1.6 | 11.3 | 0.00 | 0.00 | 0.00 | 31 | 1014.2 |
| 20260503205514 | 17 | 196 | 3.2 | 12.9 | 0.00 | 0.00 | 0.00 | 29 | 1014.2 |
| 20260503205013 | 17 | 299 | 3.2 | 12.9 | 0.00 | 0.00 | 0.00 | 29 | 1014.2 |
| 20260503204532 | 17 | 215 | 3.2 | 12.9 | 0.00 | 0.00 | 0.00 | 29 | 1014.2 |
| 20260503204011 | 17 | 298 | 1.6 | 9.7 | 0.00 | 0.00 | 0.00 | 31 | 1014.2 |
| 20260503203513 | 17 | 270 | 3.2 | 17.7 | 0.00 | 0.00 | 0.00 | 31 | 1014.2 |
| 20260503203027 | 16 | 0 | 3.2 | 17.7 | 0.00 | 0.00 | 0.00 | 33 | 1014.1 |
| 20260503202516 | 17 | 314 | 3.2 | 17.7 | 0.00 | 0.00 | 0.00 | 31 | 1014.2 |
| 20260503202014 | 17 | 334 | 1.6 | 8.0 | 0.00 | 0.00 | 0.00 | 34 | 1014.3 |
| 20260503201530 | 16 | 0 | 1.6 | 11.3 | 0.00 | 0.00 | 0.00 | 35 | 1014.3 |
| 20260503201012 | 16 | 239 | 0.0 | 11.3 | 0.00 | 0.00 | 0.00 | 37 | 1014.4 |
| 20260503200512 | 16 | 257 | 3.2 | 16.1 | 0.00 | 0.00 | 0.00 | 33 | 1014.5 |
| 20260503200031 | 16 | 289 | 3.2 | 16.1 | 0.00 | 0.00 | 0.00 | 31 | 1014.5 |
| 20260503195511 | 16 | 208 | 3.2 | 16.1 | 0.00 | 0.00 | 0.00 | 31 | 1014.7 |
| 20260503195009 | 16 | 355 | 3.2 | 16.1 | 0.00 | 0.00 | 0.00 | 34 | 1014.7 |
| 20260503194532 | 16 | 291 | 1.6 | 11.3 | 0.00 | 0.00 | 0.00 | 34 | 1014.8 |
| 20260503194009 | 16 | 0 | 1.6 | 11.3 | 0.00 | 0.00 | 0.00 | 34 | 1014.8 |
| 20260503193512 | 16 | 321 | 1.6 | 12.9 | 0.00 | 0.00 | 0.00 | 32 | 1015.0 |
| 20260503193029 | 16 | 0 | 3.2 | 12.9 | 0.00 | 0.00 | 0.00 | 35 | 1015.0 |
| 20260503192514 | 16 | 252 | 1.6 | 12.9 | 0.00 | 0.00 | 0.00 | 35 | 1015.2 |
| 20260503192013 | 16 | 208 | 4.8 | 12.9 | 0.00 | 0.00 | 0.00 | 34 | 1015.2 |
| 20260503191529 | 16 | 177 | 4.8 | 12.9 | 0.00 | 0.00 | 0.00 | 35 | 1015.1 |
| 20260503191007 | 16 | 313 | 1.6 | 16.1 | 0.00 | 0.00 | 0.00 | 36 | 1015.2 |
| 20260503190507 | 16 | 0 | 3.2 | 16.1 | 0.00 | 0.00 | 0.00 | 36 | 1015.3 |
| 20260503190038 | 16 | 257 | 1.6 | 6.4 | 0.00 | 0.00 | 0.00 | 34 | 1015.4 |
| 20260503185510 | 16 | 207 | 0.0 | 6.4 | 0.00 | 0.00 | 0.00 | 39 | 1015.4 |
| 20260503185010 | 16 | 28 | 1.6 | 11.3 | 0.00 | 0.00 | 0.00 | 36 | 1015.5 |
| 20260503184527 | 16 | 207 | 1.6 | 11.3 | 0.00 | 0.00 | 0.00 | 38 | 1015.6 |
| 20260503184012 | 15 | 275 | 3.2 | 11.3 | 0.00 | 0.00 | 0.00 | 39 | 1015.7 |
| 20260503183512 | 15 | 0 | 0.0 | 8.0 | 0.00 | 0.00 | 0.00 | 37 | 1015.7 |
| 20260503183036 | 15 | 153 | 1.6 | 11.3 | 0.00 | 0.00 | 0.00 | 40 | 1015.8 |
| 20260503182509 | 15 | 254 | 1.6 | 16.1 | 0.00 | 0.00 | 0.00 | 40 | 1015.9 |
| 20260503182011 | 15 | 215 | 4.8 | 16.1 | 0.00 | 0.00 | 0.00 | 39 | 1016.0 |
| 20260503181546 | 14 | 309 | 1.6 | 11.3 | 0.00 | 0.00 | 0.00 | 37 | 1015.9 |
| 20260503181008 | 14 | 111 | 1.6 | 12.9 | 0.00 | 0.00 | 0.00 | 35 | 1015.9 |
| 20260503180507 | 15 | 0 | 0.0 | 12.9 | 0.00 | 0.00 | 0.00 | 37 | 1016.0 |
| 20260503180041 | 15 | 219 | 1.6 | 12.9 | 0.00 | 0.00 | 0.00 | 40 | 1016.1 |
| 20260503175511 | 15 | 290 | 1.6 | 12.9 | 0.00 | 0.00 | 0.00 | 43 | 1016.0 |
| 20260503175008 | 14 | 335 | 1.6 | 14.5 | 0.00 | 0.00 | 0.00 | 38 | 1016.2 |
| 20260503174527 | 14 | 320 | 4.8 | 14.5 | 0.00 | 0.00 | 0.00 | 36 | 1016.2 |
| 20260503174013 | 14 | 284 | 3.2 | 16.1 | 0.00 | 0.00 | 0.00 | 43 | 1016.2 |
| 20260503173511 | 13 | 275 | 3.2 | 16.1 | 0.00 | 0.00 | 0.00 | 39 | 1016.2 |
| 20260503173028 | 14 | 183 | 1.6 | 12.9 | 0.00 | 0.00 | 0.00 | 39 | 1016.2 |
| 20260503172510 | 13 | 304 | 0.0 | 12.9 | 0.00 | 0.00 | 0.00 | 40 | 1016.2 |
| 20260503172011 | 14 | 194 | 1.6 | 12.9 | 0.00 | 0.00 | 0.00 | 40 | 1016.4 |
| 20260503171530 | 14 | 5 | 3.2 | 12.9 | 0.00 | 0.00 | 0.00 | 39 | 1016.4 |
| 20260503171007 | 13 | 289 | 0.0 | 11.3 | 0.00 | 0.00 | 0.00 | 42 | 1016.4 |
| 20260503170508 | 13 | 273 | 1.6 | 9.7 | 0.00 | 0.00 | 0.00 | 41 | 1016.4 |